Weather History for Juneau, WI

Change the Weather History Date:

Thursday, December 12, 2013

  Actual Average Record
Temperature  
Mean Temperature 4 °F -  
Max Temperature 15 °F 33 °F 48 °F (2006)
Min Temperature -6 °F 21 °F -10 °F (1986)
Degree Days  
Heating Degree Days 60    
Moisture  
Dew Point -2 °F    
Average Humidity 65    
Maximum Humidity 73    
Minimum Humidity 56    
Precipitation  
Precipitation 0.00 in - - ()
Sea Level Pressure  
Sea Level Pressure 30.27 in    
Wind  
Wind Speed 9 mph (SSW)    
Max Wind Speed 15 mph    
Max Gust Speed -    
Visibility 10 miles    
Events Snow    
Averages and records for this station are not official NWS values.
T = Trace of Precipitation, MM = Missing Value Source: NWS Daily Summary

Daily Weather History Graph

Daily Weather History Graph

Search for Another Location

Airport:

Trip Planner

Search our weather history database for the weather conditions in past years. The results will help you decide how hot, cold, wet, or windy it might be!

Date:

Astronomy

Dec. 12, 2013 Rise Set
Actual Time 7:18 AM CST 4:18 PM CST
Civil Twilight 6:45 AM CST 4:51 PM CST
Nautical Twilight 6:09 AM CST 5:27 PM CST
Astronomical Twilight 5:35 AM CST 6:02 PM CST
Moon 1:31 PM CST (12/12) 2:34 AM CST (12/12)
Length of Visible Light 10h 05m
Length of Day
9h 00m
Waxing Gibbous, 80% of the Moon is Illuminated
Dec 12
Waxing Gibbous
Dec 17
Full
Dec 25
Last Quarter
Jan 1
New
Jan 7
First Quarter

Hourly Weather History & Observations

Time (CST) Temp. Windchill Dew Point Humidity Pressure Visibility Wind Dir Wind Speed Gust Speed Precip Events Conditions
12:15 AM -6.3 °F -21.9 °F -15.3 °F 65% 30.44 in 10.0 mi SW 8.1 mph - N/A   Clear
12:35 AM -4.7 °F -21.1 °F -13.9 °F 65% 30.45 in 10.0 mi SW 9.2 mph - N/A   Clear
12:55 AM -4.5 °F -18.4 °F -13.4 °F 66% 30.44 in 10.0 mi SW 6.9 mph - N/A   Clear
1:15 AM -5.8 °F -18.4 °F -14.3 °F 67% 30.43 in 10.0 mi SSW 5.8 mph - N/A   Clear
1:35 AM -6.0 °F -18.6 °F -14.1 °F 68% 30.43 in 10.0 mi SSW 5.8 mph - N/A   Clear
1:55 AM -5.6 °F -18.2 °F -13.5 °F 69% 30.42 in 10.0 mi South 5.8 mph - N/A   Clear
2:15 AM -4.7 °F -21.1 °F -12.5 °F 69% 30.42 in 10.0 mi SSW 9.2 mph - N/A   Scattered Clouds
2:35 AM -4.0 °F -21.2 °F -11.7 °F 69% 30.42 in 10.0 mi SSW 10.4 mph - N/A   Mostly Cloudy
2:55 AM -4.2 °F -21.4 °F -11.9 °F 69% 30.41 in 10.0 mi SSW 10.4 mph - N/A   Mostly Cloudy
3:15 AM -4.0 °F -20.2 °F -11.4 °F 71% 30.40 in 10.0 mi SSW 9.2 mph - N/A   Mostly Cloudy
3:35 AM -3.3 °F -20.3 °F -11.0 °F 69% 30.38 in 10.0 mi SSW 10.4 mph - N/A   Overcast
3:55 AM -2.6 °F -19.4 °F -10.1 °F 70% 30.37 in 10.0 mi SSW 10.4 mph - N/A   Overcast
4:15 AM -2.2 °F -18.0 °F -10.3 °F 68% 30.36 in 10.0 mi SSW 9.2 mph - N/A   Overcast
4:35 AM -1.5 °F -19.8 °F -9.8 °F 68% 30.35 in 10.0 mi SSW 12.7 mph - N/A   Overcast
4:55 AM -1.1 °F -17.6 °F -9.2 °F 69% 30.35 in 3.0 mi SSW 10.4 mph - N/A Snow Light Snow
5:15 AM -0.4 °F -15.7 °F -8.0 °F 70% 30.33 in 3.0 mi South 9.2 mph - N/A Snow Light Snow
5:35 AM 0.1 °F -16.0 °F -7.6 °F 70% 30.31 in 7.0 mi South 10.4 mph - N/A Snow Light Snow
5:55 AM 0.7 °F -17.8 °F -7.8 °F 68% 30.29 in 10.0 mi South 13.8 mph - N/A   Overcast
6:15 AM 1.4 °F -16.1 °F -7.8 °F 65% 30.28 in 10.0 mi South 12.7 mph - N/A   Overcast
6:35 AM 1.8 °F -14.9 °F -7.6 °F 65% 30.29 in 10.0 mi SSW 11.5 mph - N/A   Overcast
6:55 AM 1.9 °F -13.8 °F -7.6 °F 64% 30.28 in 10.0 mi SSW 10.4 mph - N/A   Mostly Cloudy
7:15 AM 2.1 °F -13.6 °F -7.6 °F 64% 30.28 in 10.0 mi SSW 10.4 mph - N/A   Scattered Clouds
7:35 AM 2.3 °F -15.0 °F -6.9 °F 66% 30.28 in 10.0 mi SSW 12.7 mph - N/A   Clear
7:55 AM 2.5 °F -13.1 °F -6.7 °F 66% 30.28 in 10.0 mi SSW 10.4 mph - N/A   Clear
8:15 AM 3.0 °F -12.5 °F -6.3 °F 65% 30.28 in 10.0 mi SSW 10.4 mph - N/A   Clear
8:35 AM 3.2 °F -11.3 °F -6.2 °F 65% 30.27 in 10.0 mi SSW 9.2 mph - N/A   Clear
8:55 AM 4.5 °F -10.7 °F -5.3 °F 64% 30.27 in 10.0 mi SSW 10.4 mph - N/A   Clear
9:15 AM 5.5 °F -10.2 °F -4.9 °F 62% 30.27 in 10.0 mi SW 11.5 mph - N/A   Clear
9:35 AM 7.2 °F -8.1 °F -4.4 °F 59% 30.28 in 10.0 mi SW 11.5 mph - N/A   Clear
9:55 AM 8.2 °F -8.2 °F -4.4 °F 57% 30.29 in 10.0 mi WSW 13.8 mph - N/A   Clear
10:15 AM 8.6 °F -8.3 °F -4.0 °F 57% 30.28 in 10.0 mi SW 15.0 mph - N/A   Clear
10:35 AM 9.3 °F -6.8 °F -3.3 °F 57% 30.28 in 10.0 mi WSW 13.8 mph - N/A   Clear
10:55 AM 10.2 °F -6.3 °F -2.4 °F 57% 30.28 in 10.0 mi WSW 15.0 mph - N/A   Clear
11:15 AM 10.4 °F -5.4 °F -2.0 °F 57% 30.27 in 10.0 mi WSW 13.8 mph - N/A   Clear
11:35 AM 10.9 °F -4.7 °F -1.8 °F 56% 30.27 in 10.0 mi SW 13.8 mph - N/A   Clear
11:55 AM 11.7 °F -3.2 °F -1.3 °F 56% 30.26 in 10.0 mi SW 12.7 mph - N/A   Clear
12:15 PM 11.8 °F -3.0 °F -0.8 °F 57% 30.25 in 10.0 mi WSW 12.7 mph - N/A   Clear
12:35 PM 12.4 °F -2.9 °F -0.2 °F 57% 30.24 in 10.0 mi SW 13.8 mph - N/A   Clear
12:55 PM 13.1 °F -0.7 °F 0.3 °F 57% 30.23 in 10.0 mi SW 11.5 mph - N/A   Clear
1:15 PM 13.8 °F 0.2 °F 1.4 °F 58% 30.23 in 10.0 mi WSW 11.5 mph - N/A   Clear
1:35 PM 14.2 °F 1.4 °F 1.6 °F 57% 30.23 in 10.0 mi WSW 10.4 mph - N/A   Clear
1:55 PM 14.4 °F 1.6 °F 2.5 °F 59% 30.22 in 10.0 mi WSW 10.4 mph - N/A   Clear
2:15 PM 14.9 °F 1.6 °F 2.5 °F 58% 30.22 in 10.0 mi SW 11.5 mph - N/A   Clear
2:35 PM 15.6 °F 1.2 °F 3.0 °F 58% 30.22 in 10.0 mi SW 13.8 mph - N/A   Clear
2:55 PM 15.8 °F 2.1 °F 3.2 °F 58% 30.21 in 10.0 mi SW 12.7 mph - N/A   Clear
3:15 PM 15.8 °F 3.4 °F 3.0 °F 57% 30.20 in 10.0 mi SW 10.4 mph - N/A   Clear
3:35 PM 15.6 °F 2.5 °F 3.2 °F 58% 30.20 in 10.0 mi SW 11.5 mph - N/A   Clear
3:55 PM 14.2 °F 2.2 °F 3.0 °F 61% 30.20 in 10.0 mi SSW 9.2 mph - N/A   Clear
4:15 PM 13.1 °F 2.8 °F 2.8 °F 64% 30.21 in 10.0 mi SSW 6.9 mph - N/A   Clear
4:35 PM 11.7 °F 1.1 °F 2.3 °F 66% 30.21 in 10.0 mi SSW 6.9 mph - N/A   Clear
4:55 PM 11.1 °F 0.4 °F 2.1 °F 67% 30.21 in 10.0 mi SSW 6.9 mph - N/A   Clear
5:15 PM 10.8 °F 1.2 °F 1.4 °F 66% 30.20 in 10.0 mi South 5.8 mph - N/A   Scattered Clouds
5:35 PM 12.2 °F 4.3 °F 2.8 °F 66% 30.21 in 10.0 mi SSW 4.6 mph - N/A   Overcast
5:55 PM 11.1 °F -0.6 °F 2.3 °F 68% 30.20 in 10.0 mi SSW 8.1 mph - N/A   Mostly Cloudy
6:15 PM 12.6 °F 3.4 °F 3.9 °F 68% 30.20 in 10.0 mi South 5.8 mph - N/A   Overcast
6:35 PM 13.6 °F 3.5 °F 4.3 °F 66% 30.20 in 10.0 mi South 6.9 mph - N/A   Overcast
6:55 PM 14.0 °F 2.0 °F 4.8 °F 67% 30.20 in 10.0 mi SSW 9.2 mph - N/A   Overcast
7:15 PM 14.2 °F 0.7 °F 5.4 °F 68% 30.20 in 10.0 mi SSW 11.5 mph - N/A   Overcast
7:35 PM 13.6 °F 2.5 °F 5.0 °F 68% 30.19 in 10.0 mi SSW 8.1 mph - N/A   Overcast
7:55 PM 13.8 °F 3.7 °F 5.5 °F 70% 30.20 in 10.0 mi SSW 6.9 mph - N/A   Overcast
8:15 PM 14.5 °F 4.6 °F 6.3 °F 70% 30.19 in 10.0 mi SSW 6.9 mph - N/A   Overcast
8:35 PM 14.5 °F 4.6 °F 6.4 °F 70% 30.19 in 10.0 mi South 6.9 mph - N/A   Overcast
8:55 PM 14.5 °F 2.7 °F 6.8 °F 71% 30.19 in 10.0 mi SSW 9.2 mph - N/A   Overcast
9:15 PM 14.7 °F 2.1 °F 7.0 °F 71% 30.17 in 10.0 mi SSW 10.4 mph - N/A   Overcast
9:35 PM 14.9 °F 2.3 °F 7.2 °F 71% 30.18 in 10.0 mi SSW 10.4 mph - N/A   Overcast
9:55 PM 15.4 °F 3.0 °F 7.5 °F 71% 30.17 in 10.0 mi SW 10.4 mph - N/A   Overcast
10:15 PM 15.4 °F 4.6 °F 7.5 °F 71% 30.16 in 10.0 mi SSW 8.1 mph - N/A   Overcast
10:35 PM 15.6 °F 5.9 °F 7.7 °F 71% 30.15 in 10.0 mi SW 6.9 mph - N/A   Overcast
10:55 PM 15.4 °F 8.1 °F 7.5 °F 71% 30.15 in 10.0 mi SW 4.6 mph - N/A   Overcast
11:15 PM 15.4 °F 5.6 °F 7.5 °F 71% 30.15 in 10.0 mi SSW 6.9 mph - N/A   Mostly Cloudy
11:35 PM 15.3 °F 9.6 °F 7.7 °F 72% 30.16 in 10.0 mi SW 3.5 mph - N/A   Scattered Clouds
11:55 PM 14.9 °F 9.2 °F 7.7 °F 73% 30.15 in 10.0 mi SSW 3.5 mph - N/A   Clear